{"data":{"norad_id":45573,"epoch":"2026-05-25T02:43:21.081216Z","epoch_age_seconds":75307,"freshness":"FRESH","line1":"1 45573U 20025AU  26145.11343844  .00084084  00000+0  99272-3 0  9994","line2":"2 45573  53.0433  48.9740 0004829  82.8397 277.3164 15.60623268337356","mean_motion":15.60623268,"eccentricity":0.0004829,"inclination_deg":53.0433,"raan_deg":48.974,"arg_perigee_deg":82.8397,"mean_anomaly_deg":277.3164,"bstar":0.00099272,"rev_number":33735,"period_min":92.270827273094,"perigee_km":382.58925324866,"apogee_km":389.12191728751,"semimajor_km":6763.9925852681,"source":"CELESTRAK","updated_at":"2026-05-25T13:38:16.424335Z"}}